Location: Acton
(51.4942°N, 0.2232°W)
Time: 14:51:44
(UTC+00:00)

NOSS 3-4 (C) - Pass Details

Date: 18 September 2020
Orbit: 886 x 1326 km, 63.4° (Epoch: 23 October)

Event Time Altitude Azimuth Distance (km) Brightness Sun altitude
Exits shadow 22:41:39 49° 11° (N) 1,237 4.2 -34.9°
Drops below altitude 10° 22:46:44 10° 44° (NE) 2,821 6.1 -35.2°
Sets 22:49:32 0° 48° (NE) 3,842 6.9 -35.3°
